vesa kasari

Log

Date Workout Score Ave Comments Action
05/09/26 v1:00/2:00r...9 12,596m 1:59.0 View workout
05/08/26 v2:00/1:00r...8 3,877m 2:03.8 View workout
05/06/26 1:00:00 26,533m 2:15.6 View workout
05/05/26 47:05 10,000m 2:21.2 View workout
05/04/26 2:00:00 50,445m 2:22.7 View workout
04/27/26 1:00:11 25,446m 2:21.9 View workout
04/26/26 v500m/1:00r...6 3,000m 1:59.1 View workout
04/25/26 1:00:00.0 25,215m 2:22.7

hr 115, 120w

View workout
04/24/26 40:06 8,092m 2:28.6 View workout
04/23/26 1:30:11 38,075m 2:22.1 View workout
04/16/26 1:00:00 12,164m 2:27.9 View workout
04/15/26 1:00:00 26,541m 2:15.6 View workout
04/13/26 1:06:16.0 28,052m 2:21.7

rpm80,watt 123,hr110

View workout
04/12/26 v1:00/2:00r...9 5,983m 2:05.3 View workout
04/11/26 v2000m/1:00r...4 8,000m 1:56.6 View workout
04/09/26 1:06:21 13,315m 2:29.5 View workout
04/08/26 1:12:55 30,058m 2:25.5 View workout
04/07/26 1:20:20 16,015m 2:30.4 View workout
04/06/26 1:20:51 33,014m 2:26.9 View workout
04/05/26 1:00:00 11,910m 2:31.1 View workout
04/04/26 1:00:05 24,258m 2:28.6 View workout
04/03/26 30:14 6,076m 2:29.3 View workout
04/02/26 v4000m/3:00r...4 10,000m 1:57.8 View workout
03/31/26 v8:00/3:00r...4 4,845m 2:03.8 View workout
03/30/26 1:00:00 28,244m 2:07.4 View workout